Stations météo

réclame
Mon MeteoGroup
Moron de la Frontera, Espagne (8397): Température de l'air & dewpoint: 19.02.2018 18:00:00 - 25.02.2018 18:00:00 (CET)Moron de la Frontera, Espagne (8397): Vitesse du vent: 19.02.2018 18:00:00 - 25.02.2018 18:00:00 (CET)Moron de la Frontera, Espagne (8397): Direction du vent: 19.02.2018 18:00:00 - 25.02.2018 18:00:00 (CET)Moron de la Frontera, Espagne (8397): reduced air pressure: 19.02.2018 18:00:00 - 25.02.2018 18:00:00 (CET)Moron de la Frontera, Espagne (8397): visibility: 19.02.2018 18:00:00 - 25.02.2018 18:00:00 (CET)
Date & Time tt [°C] td [°C] ff [km/h] ff [knt] dd ppp [hPa] vv [km]
25.02.2018 18:00:00 - - - - - - -
25.02.2018 17:00:00 - - - - - - -
25.02.2018 16:00:00 15,9 7,7 8 4 S 1011,6 25
25.02.2018 15:00:00 - - - - - - -
25.02.2018 14:00:00 - - - - - - -
25.02.2018 13:00:00 12,7 10,4 4 2 SSE 1013,1 10
25.02.2018 12:00:00 - - - - - - -
25.02.2018 11:00:00 - - - - - - -
25.02.2018 10:00:00 10,3 9,7 5 3 NNE 1012,7 6
25.02.2018 09:00:00 - - - - - - -
25.02.2018 08:00:00 - - - - - - -
25.02.2018 07:00:00 9,7 8,1 5 3 E 1011,0 10
25.02.2018 06:00:00 - - - - - - -
25.02.2018 05:00:00 - - - - - - -
25.02.2018 04:00:00 9,1 6,5 5 3 NE 1010,6 15
25.02.2018 03:00:00 - - - - - - -
25.02.2018 02:00:00 - - - - - - -
25.02.2018 01:00:00 10,4 6,7 0 0 N 1010,0 20
25.02.2018 00:00:00 - - - - - - -
24.02.2018 23:00:00 - - - - - - -
24.02.2018 22:00:00 12,0 6,5 4 2 SSW 1009,3 25
24.02.2018 21:00:00 - - - - - - -
24.02.2018 20:00:00 - - - - - - -
24.02.2018 19:00:00 13,7 5,8 8 4 SSW 1007,6 25
24.02.2018 18:00:00 - - - - - - -
24.02.2018 17:00:00 - - - - - - -
24.02.2018 16:00:00 17,0 5,0 8 4 NNW 1006,1 25
24.02.2018 15:00:00 - - - - - - -
24.02.2018 14:00:00 - - - - - - -
24.02.2018 13:00:00 14,7 5,2 5 3 N 1007,1 20
24.02.2018 12:00:00 - - - - - - -
24.02.2018 11:00:00 - - - - - - -
24.02.2018 10:00:00 6,9 4,9 0 0 N 1007,1 12
24.02.2018 09:00:00 - - - - - - -
24.02.2018 08:00:00 - - - - - - -
24.02.2018 07:00:00 2,2 1,5 5 3 SSE 1005,9 12
24.02.2018 06:00:00 - - - - - - -
24.02.2018 05:00:00 - - - - - - -
24.02.2018 04:00:00 2,1 0,6 4 2 E 1005,5 15
24.02.2018 03:00:00 - - - - - - -
24.02.2018 02:00:00 - - - - - - -
24.02.2018 01:00:00 6,0 3,3 4 2 SSE 1005,1 15
24.02.2018 00:00:00 - - - - - - -
23.02.2018 23:00:00 - - - - - - -
23.02.2018 22:00:00 8,2 -2,7 8 4 SSE 1003,8 20
23.02.2018 21:00:00 - - - - - - -
23.02.2018 20:00:00 - - - - - - -
23.02.2018 19:00:00 14,7 -1,8 8 4 NNE 1003,1 25
23.02.2018 18:00:00 - - - - - - -
23.02.2018 17:00:00 - - - - - - -
23.02.2018 16:00:00 17,3 -0,4 4 2 NE 1003,5 25
23.02.2018 15:00:00 - - - - - - -
23.02.2018 14:00:00 - - - - - - -
23.02.2018 13:00:00 14,3 1,2 13 7 ENE 1005,9 25
23.02.2018 12:00:00 - - - - - - -
23.02.2018 11:00:00 - - - - - - -
23.02.2018 10:00:00 6,5 1,6 9 5 NE 1006,4 20
23.02.2018 09:00:00 - - - - - - -
23.02.2018 08:00:00 - - - - - - -
23.02.2018 07:00:00 1,3 -1,9 5 3 NE 1006,3 25
23.02.2018 06:00:00 - - - - - - -
23.02.2018 05:00:00 - - - - - - -
23.02.2018 04:00:00 2,3 -1,1 5 3 S 1007,0 25
23.02.2018 03:00:00 - - - - - - -
23.02.2018 02:00:00 - - - - - - -
23.02.2018 01:00:00 3,0 -0,5 8 4 SSE 1007,8 30
23.02.2018 00:00:00 - - - - - - -
22.02.2018 23:00:00 - - - - - - -
22.02.2018 22:00:00 5,0 -2,3 4 2 SSW 1008,1 30
22.02.2018 21:00:00 - - - - - - -
22.02.2018 20:00:00 - - - - - - -
22.02.2018 19:00:00 12,6 -0,6 5 3 SSW 1007,4 30
22.02.2018 18:00:00 - - - - - - -
22.02.2018 17:00:00 - - - - - - -
22.02.2018 16:00:00 16,0 0,2 4 2 NW 1007,9 30
22.02.2018 15:00:00 - - - - - - -
22.02.2018 14:00:00 - - - - - - -
22.02.2018 13:00:00 12,1 -0,4 8 4 NE 1010,2 30
22.02.2018 12:00:00 - - - - - - -
22.02.2018 11:00:00 - - - - - - -
22.02.2018 10:00:00 7,5 -0,2 5 3 E 1010,2 25
22.02.2018 09:00:00 - - - - - - -
22.02.2018 08:00:00 - - - - - - -
22.02.2018 07:00:00 3,1 -2,8 5 3 NNE 1009,9 25
22.02.2018 06:00:00 - - - - - - -
22.02.2018 05:00:00 - - - - - - -
22.02.2018 04:00:00 5,2 -2,4 0 0 N 1009,1 25
22.02.2018 03:00:00 - - - - - - -
22.02.2018 02:00:00 - - - - - - -
22.02.2018 01:00:00 8,2 -1,9 9 5 ENE 1009,0 25
22.02.2018 00:00:00 - - - - - - -
21.02.2018 23:00:00 - - - - - - -
21.02.2018 22:00:00 11,7 -0,8 5 3 ESE 1008,4 30
21.02.2018 21:00:00 - - - - - - -
21.02.2018 20:00:00 - - - - - - -
21.02.2018 19:00:00 15,9 0,5 5 3 ENE 1006,5 30
21.02.2018 18:00:00 - - - - - - -
21.02.2018 17:00:00 - - - - - - -
21.02.2018 16:00:00 17,5 2,7 8 4 NE 1006,4 30
21.02.2018 15:00:00 - - - - - - -
21.02.2018 14:00:00 - - - - - - -
21.02.2018 13:00:00 15,7 3,2 16 9 NE 1009,8 30
21.02.2018 12:00:00 - - - - - - -
21.02.2018 11:00:00 - - - - - - -
21.02.2018 10:00:00 11,5 4,9 11 6 ENE 1010,9 25
21.02.2018 09:00:00 - - - - - - -
21.02.2018 08:00:00 - - - - - - -
21.02.2018 07:00:00 6,5 3,8 5 3 NNE 1010,5 25
21.02.2018 06:00:00 - - - - - - -
21.02.2018 05:00:00 - - - - - - -
21.02.2018 04:00:00 7,3 4,3 2 1 E 1011,7 25
21.02.2018 03:00:00 - - - - - - -
21.02.2018 02:00:00 - - - - - - -
21.02.2018 01:00:00 6,4 4,1 8 4 SSE 1013,6 30
21.02.2018 00:00:00 - - - - - - -
20.02.2018 23:00:00 - - - - - - -
20.02.2018 22:00:00 10,3 5,3 5 3 SSE 1014,4 30
20.02.2018 21:00:00 - - - - - - -
20.02.2018 20:00:00 - - - - - - -
20.02.2018 19:00:00 18,1 4,3 4 2 E 1014,0 35
20.02.2018 18:00:00 - - - - - - -
20.02.2018 17:00:00 - - - - - - -
20.02.2018 16:00:00 19,6 5,6 15 8 ENE 1014,8 30
20.02.2018 15:00:00 - - - - - - -
20.02.2018 14:00:00 - - - - - - -
20.02.2018 13:00:00 17,0 5,9 18 10 ENE 1017,3 20
20.02.2018 12:00:00 - - - - - - -
20.02.2018 11:00:00 - - - - - - -
20.02.2018 10:00:00 8,4 4,8 4 2 NNE 1018,5 15
20.02.2018 09:00:00 - - - - - - -
20.02.2018 08:00:00 - - - - - - -
20.02.2018 07:00:00 4,2 2,4 2 1 ESE 1017,6 15
20.02.2018 06:00:00 - - - - - - -
20.02.2018 05:00:00 - - - - - - -
20.02.2018 04:00:00 4,1 2,0 8 4 SSE 1017,6 15
20.02.2018 03:00:00 - - - - - - -
20.02.2018 02:00:00 - - - - - - -
20.02.2018 01:00:00 6,5 3,5 5 3 S 1017,7 20
20.02.2018 00:00:00 - - - - - - -
19.02.2018 23:00:00 - - - - - - -
19.02.2018 22:00:00 8,6 3,8 5 3 SSE 1017,7 20
19.02.2018 21:00:00 - - - - - - -
19.02.2018 20:00:00 - - - - - - -
19.02.2018 19:00:00 16,0 1,7 2 1 ENE 1016,7 25
19.02.2018 18:00:00 - - - - - - -

tt = Température de l'air
td = dewpoint
ff = Vitesse du vent
dd = Direction du vent
ppp = reduced air pressure
vv = visibility

stations d'obs. à proximité